Maplewood, Minnesota, United States
Lat: 44.95N, Lon: 93W
Wx Zone: MNZ062
Local Info
Past Weather Observations for Friday, July 25, 2014

NOTE: This archive is for the closest National Weather Service station to Maplewood. Information may differ from the station used for current weather conditions.

Click here for Long-term Archive

Time Weather Temperature Dewpoint Humidity Pressure Winds Precip Visibility
23:53
Mostly Cloudy
72°F / 22°C 70°F / 21°C 94% 29.8 in
(1009 mb)
S 3.5 mph
(S 6 kph)
- 9SM
22:53
Overcast
73°F / 23°C 70°F / 21°C 89% 29.8 in
(1009 mb)
SSE 3.5 mph
(SSE 6 kph)
- 10SM
21:53
Overcast
75°F / 24°C 70°F / 21°C 83% 29.8 in
(1009 mb)
S 3.5 mph
(S 6 kph)
- 10SM
20:53
Overcast
75°F / 24°C 70°F / 21°C 83% 29.77 in
(1008 mb)
SSE 3.5 mph
(SSE 6 kph)
- 10SM
19:53
Overcast
75°F / 24°C 72°F / 22°C 89% 29.77 in
(1008 mb)
SSE 3.5 mph
(SSE 6 kph)
- 10SM
18:53
Overcast
77°F / 25°C 70°F / 21°C 79% 29.77 in
(1008 mb)
Calm - 10SM
17:53
Overcast
79°F / 26°C 70°F / 21°C 74% 29.77 in
(1008 mb)
SW 4.6 mph
(SW 7 kph)
- 10SM
16:53
Overcast
77°F / 25°C 70°F / 21°C 79% 29.77 in
(1008 mb)
S 6.9 mph
(S 11 kph)
- 10SM
15:53
Overcast
79°F / 26°C 70°F / 21°C 74% 29.77 in
(1008 mb)
S 5.8 mph
(S 9 kph)
- 10SM
14:53
Overcast
79°F / 26°C 68°F / 20°C 70% 29.77 in
(1008 mb)
S 8.1 mph
(S 13 kph)
- 10SM
13:53
Overcast
79°F / 26°C 68°F / 20°C 70% 29.8 in
(1009 mb)
S 6.9 mph
(S 11 kph)
- 10SM
12:53
Mostly Cloudy
77°F / 25°C 66°F / 19°C 69% 29.8 in
(1009 mb)
S 8.1 mph
(S 13 kph)
- 10SM
12:50
Mostly Cloudy
77°F / 25°C 66°F / 19°C 69% 29.8 in
(1009 mb)
SSE 8.1 mph
(SSE 13 kph)
- 10SM
11:53
Overcast
73°F / 23°C 64°F / 18°C 74% 29.8 in
(1009 mb)
SSE 3.5 mph
(SSE 6 kph)
- 10SM
10:53
Overcast
72°F / 22°C 64°F / 18°C 78% 29.83 in
(1010 mb)
SSE 11.5 mph
(SSE 19 kph)
- 10SM
10:01
Overcast
72°F / 22°C 64°F / 18°C 78% 29.8 in
(1009 mb)
S 15 mph
(S 24 kph)
- 10SM
09:53
Overcast
70°F / 21°C 64°F / 18°C 83% 29.8 in
(1009 mb)
S 8.1 mph
(S 13 kph)
- 10SM
09:07
Overcast
70°F / 21°C 64°F / 18°C 83% 29.83 in
(1010 mb)
S 9.2 mph
(S 15 kph)
- 10SM
08:53
Overcast
68°F / 20°C 64°F / 18°C 88% 29.83 in
(1010 mb)
S 8.1 mph
(S 13 kph)
- 10SM
08:34
Mostly Cloudy
68°F / 20°C 64°F / 18°C 88% 29.86 in
(1011 mb)
S 10.4 mph
(S 17 kph)
- 10SM
07:53
Overcast
66°F / 19°C 64°F / 18°C 94% 29.86 in
(1011 mb)
SSE 5.8 mph
(SSE 9 kph)
- 10SM
07:38
Overcast
64°F / 18°C 63°F / 17°C 94% 29.86 in
(1011 mb)
S 8.1 mph
(S 13 kph)
- 10SM
07:20
Overcast
64°F / 18°C 63°F / 17°C 94% 29.89 in
(1012 mb)
Calm - 10SM
07:05
Overcast
64°F / 18°C 63°F / 17°C 94% 29.86 in
(1011 mb)
Calm - 10SM
06:53
Overcast
64°F / 18°C 63°F / 17°C 94% 29.86 in
(1011 mb)
SE 5.8 mph
(SE 9 kph)
0.02 in
(0.51 mm)
10SM
05:53
Mostly Cloudy
Light Rain
64°F / 18°C 63°F / 17°C 94% 29.8 in
(1009 mb)
SSE 15 mph
(SSE 24 kph)
0.19 in
(4.83 mm)
10SM
05:00
Mostly Cloudy
Rain
64°F / 18°C 63°F / 17°C 94% 29.83 in
(1010 mb)
SE 13.8 mph
(SE 22 kph)
0.04 in
(1.02 mm)
5SM
04:53
Mostly Cloudy
Thunder Storms
64°F / 18°C 63°F / 17°C 94% 29.86 in
(1011 mb)
SE 6.9 mph
(SE 11 kph)
0.10 in
(2.54 mm)
6SM
04:29
Mostly Cloudy
Thunder Storms
64°F / 18°C 61°F / 16°C 88% 29.89 in
(1012 mb)
S 16.1 mph
(S 26 kph)
0.06 in
(1.52 mm)
4SM
04:16
Overcast
Thunder Storms
66°F / 19°C 61°F / 16°C 83% 29.92 in
(1013 mb)
S 16.1 mph
(S 26 kph)
0.00 in
(0.00 mm)
8SM
03:53
Mostly Cloudy
68°F / 20°C 61°F / 16°C 78% 29.89 in
(1012 mb)
S 11.5 mph
(S 19 kph)
- 10SM
02:53
Mostly Cloudy
68°F / 20°C 61°F / 16°C 78% 29.86 in
(1011 mb)
SE 12.7 mph
(SE 20 kph)
- 10SM
01:53
Overcast
68°F / 20°C 59°F / 15°C 73% 29.89 in
(1012 mb)
SSE 12.7 mph
(SSE 20 kph)
- 10SM
00:53
Clear
68°F / 20°C 59°F / 15°C 73% 29.86 in
(1011 mb)
SE 12.7 mph
(SE 20 kph)
- 10SM
Time Weather Temperature Dewpoint Humidity Pressure Winds Precip Visibility


Weather for websites

WeatherForYou.com, LLC is not responsible for any damages or problems caused by this service. Current weather conditions are obtained from the closest station including government and personal stations which may have varying degrees of accuracy. Weather forecasts are derived from the NOAA NDFD. Like all things, this site belongs to Jesus Christ... He just trusts me to maintain it. If you have any questions or comments email webmaster@weatherforyou.com

Copyright © 2014, WeatherForYou.com LLC. All rights reserved.